Change the Weather History Date:

Wednesday, December 26, 2012

  Actual Average Record
Temperature  
Mean Temperature 52 °F -  
Max Temperature 62 °F 52 °F 62 °F (1999)
Min Temperature 42 °F 39 °F 32 °F (2003)
Degree Days  
Heating Degree Days 13    
Growing Degree Days 2 (Base 50)    
Moisture  
Dew Point 45 °F    
Average Humidity 84    
Maximum Humidity 93    
Minimum Humidity 63    
Precipitation  
Precipitation 0.00 in - - ()
Sea Level Pressure  
Sea Level Pressure 29.97 in    
Wind  
Wind Speed 3 mph ()    
Max Wind Speed 6 mph    
Max Gust Speed -    
Visibility 5.8 miles    
Events      
Averages and records for this station are not official NWS values.
T = Trace of Precipitation, MM = Missing Value Source: Averaged Metar Reports

Daily Weather History Graph

Daily Weather History Graph

Search for Another Location

Airport or City:

Trip Planner

Search our weather history database for the weather conditions in past years. The results will help you decide how hot, cold, wet, or windy it might be!

Date:

Astronomy

Dec. 26, 2012 Rise Set
Actual Time 8:04 AM CET 5:01 PM CET
Civil Twilight 7:31 AM CET 5:34 PM CET
Nautical Twilight 6:55 AM CET 6:10 PM CET
Astronomical Twilight 6:20 AM CET 6:45 PM CET
Moon 3:43 PM CET (12/26) 6:13 AM CET (12/26)
Length of Visible Light 10h 02m
Length of Day
8h 57m
Waxing Gibbous, 97% of the Moon is Illuminated
Dec 26
Waxing Gibbous
Dec 28
Full
Jan 5
Last Quarter
Jan 11
New
Jan 19
First Quarter

Hourly Weather History & Observations

Time (CET) Temp. Windchill Dew Point Humidity Pressure Visibility Wind Dir Wind Speed Gust Speed Precip Events Conditions
12:00 AM 50.0 °F - 46.4 °F 87% 29.98 in 6.2 mi North 4.6 mph - N/A   Mostly Cloudy
12:30 AM 50.0 °F - 44.6 °F 82% 29.98 in 6.2 mi Variable 3.5 mph - N/A   Unknown
1:00 AM 50.0 °F - 44.6 °F 82% 29.98 in 6.2 mi North 3.5 mph - N/A   Unknown
1:30 AM 48.2 °F - 44.6 °F 87% 29.95 in 6.2 mi North 3.5 mph - N/A   Unknown
2:00 AM 48.2 °F - 44.6 °F 87% 29.95 in 6.2 mi Variable 2.3 mph - N/A   Unknown
2:30 AM 48.2 °F - 44.6 °F 87% 29.95 in 6.2 mi North 3.5 mph - N/A   Unknown
3:00 AM 48.2 °F - 44.6 °F 87% 29.95 in 6.2 mi North 4.6 mph - N/A   Unknown
3:30 AM 46.4 °F - 42.8 °F 87% 29.95 in 6.2 mi Variable 2.3 mph - N/A   Unknown
4:00 AM 46.4 °F 45.2 °F 42.8 °F 87% 29.95 in 6.2 mi North 3.5 mph - N/A   Unknown
4:30 AM 46.4 °F 44.3 °F 42.8 °F 87% 29.92 in 6.2 mi North 4.6 mph - N/A   Unknown
5:00 AM 46.4 °F 44.3 °F 42.8 °F 87% 29.95 in 6.2 mi North 4.6 mph - N/A   Unknown
5:30 AM 48.2 °F - 44.6 °F 87% 29.95 in 6.2 mi Variable 3.5 mph - N/A   Unknown
6:00 AM 48.2 °F - 44.6 °F 87% 29.95 in 6.2 mi Variable 3.5 mph - N/A   Overcast
6:30 AM 48.2 °F - 44.6 °F 87% 29.95 in 6.2 mi Calm Calm - N/A   Overcast
7:00 AM 48.2 °F - 44.6 °F 87% 29.95 in 6.2 mi Variable 3.5 mph - N/A   Overcast
7:30 AM 48.2 °F - 44.6 °F 87% 29.95 in 6.2 mi North 3.5 mph - N/A   Overcast
8:00 AM 48.2 °F - 44.6 °F 87% 29.95 in 6.2 mi Variable 2.3 mph - N/A   Overcast
8:30 AM 48.2 °F - 44.6 °F 87% 29.92 in 6.2 mi Variable 2.3 mph - N/A   Unknown
9:00 AM 50.0 °F - 44.6 °F 82% 29.95 in 6.2 mi North 3.5 mph - N/A   Unknown
9:30 AM 50.0 °F - 44.6 °F 82% 29.95 in 6.2 mi NNE 4.6 mph - N/A   Mostly Cloudy
10:00 AM 50.0 °F - 44.6 °F 82% 29.95 in 6.2 mi Variable 2.3 mph - N/A   Mostly Cloudy
10:30 AM 50.0 °F - 46.4 °F 87% 29.95 in 6.2 mi North 3.5 mph - N/A   Mostly Cloudy
11:00 AM 51.8 °F - 46.4 °F 82% 29.95 in 6.2 mi Variable 2.3 mph - N/A   Mostly Cloudy
11:30 AM 51.8 °F - 46.4 °F 82% 29.95 in 6.2 mi Variable 3.5 mph - N/A   Overcast
12:00 PM 51.8 °F - 46.4 °F 82% 29.95 in 6.2 mi Variable 2.3 mph - N/A   Unknown
12:30 PM 53.6 °F - 48.2 °F 82% 29.95 in 6.2 mi Variable 2.3 mph - N/A   Unknown
1:00 PM 55.4 °F - 48.2 °F 77% 29.92 in 6.2 mi Variable 1.2 mph - N/A   Unknown
1:30 PM 59.0 °F - 50.0 °F 72% 29.92 in 6.2 mi Calm Calm - N/A   Unknown
2:00 PM 62.6 °F - 50.0 °F 63% 29.92 in 6.2 mi Calm Calm - N/A   Unknown
2:30 PM 60.8 °F - 50.0 °F 68% 29.92 in 6.2 mi South 3.5 mph - N/A   Unknown
3:00 PM 59.0 °F - 50.0 °F 72% 29.92 in 6.2 mi SSE 5.8 mph - N/A   Unknown
3:30 PM 59.0 °F - 50.0 °F 72% 29.95 in 6.2 mi South 4.6 mph - N/A   Unknown
4:00 PM 59.0 °F - 50.0 °F 72% 29.95 in 6.2 mi South 3.5 mph - N/A   Unknown
4:30 PM 57.2 °F - 48.2 °F 72% 29.95 in 6.2 mi Variable 2.3 mph - N/A   Unknown
5:30 PM 51.8 °F - 46.4 °F 82% 29.98 in 6.2 mi Calm Calm - N/A   Unknown
6:00 PM 50.0 °F - 46.4 °F 87% 30.01 in 6.2 mi Variable 3.5 mph - N/A   Unknown
6:30 PM 50.0 °F - 46.4 °F 87% 30.01 in 4.3 mi Variable 2.3 mph - N/A   Unknown
7:00 PM 48.2 °F - 44.6 °F 87% 30.04 in 4.3 mi Variable 2.3 mph - N/A   Unknown
7:30 PM 48.2 °F - 44.6 °F 87% 30.04 in 4.3 mi Variable 2.3 mph - N/A   Unknown
8:00 PM 46.4 °F 44.3 °F 44.6 °F 93% 30.04 in 3.7 mi North 4.6 mph - N/A   Unknown
8:30 PM 46.4 °F - 42.8 °F 87% 30.04 in 3.7 mi Variable 2.3 mph - N/A   Unknown
9:00 PM 46.4 °F - 42.8 °F 87% 30.06 in 3.7 mi Calm Calm - N/A   Unknown
9:30 PM 46.4 °F - 42.8 °F 87% 30.06 in 3.7 mi Variable 2.3 mph - N/A   Unknown
10:00 PM 44.6 °F - 42.8 °F 93% 30.06 in 3.1 mi Variable 2.3 mph - N/A   Mist
10:30 PM 44.6 °F 43.1 °F 42.8 °F 93% 30.06 in 5.6 mi NNE 3.5 mph - N/A   Unknown
11:00 PM 42.8 °F - 41.0 °F 93% 30.09 in 6.2 mi Variable 2.3 mph - N/A   Unknown
11:30 PM 42.8 °F - 39.2 °F 87% 30.09 in 6.2 mi Calm Calm - N/A   Unknown